SCP
0 0 0 0 0 0 0 0 0 0 0 0 0 0 0 0 0 0 0 0 0 0 0 0 0 0 0 0 0 -0 0 0 0 0 0 0 0 -0 0 0 0 0 0 0 0
0 0 0 0 0 0 0 0 0 0 0 0 0 0 0 0 0 0 -0 0 0 0 0 0 0 0 0 0 0 0 -0 -0 0 0 0 0 0 0 0 0 0 0 0 0 0
0 0 0 0 0 0 0 0 0 0 0 0 0 0 0 0 0 0 -0 0 0 0 0 0 0 0 0 0 0 0 -0 -0 0 -0 0 -0 -0 0 -0 -0 0 0 0 0 0
0 0 0 0 0 0 0 0 0 0 0 0 0 0 0 0 0 0 -0 0 0 0 0 -0 -0 0 0 0 0 0 -0 0 0 0 0 0 0 0 -0 0 -0 0 0 0 0
0 0 0 0 0 0 0 0 0 0 0 0 0 0 -0 0 0 0 0 0 0 0 0 0 -0 0 0 0 0 0 0 0 0 0 0 0 0 -0 -0 -0 0 0 0 0 0
0 0 0 0 0 0 0 0 0 0 0 0 0 0 0 0 0 0 0 0 0 0 0 0 0 0 0 0 0 0 0 0 0 0 0 0 -0 -0 -0 -0 0 0 0 0 0
0 0 0 0 0 0 0 0 0 0 0 0 0 0 0 0 0 0 -0 -0 0 0 0 0 0 0 -0 -0 -0 0 0 0 -0 -0 -0 0 -0 -0 -0 -0 -0 -0 -0 0 0
0 0 0 0 0 0 0 0 0 0 0 0 0 0 0 0 0 -0 -0 -0 -0 -0 -0 -0 0 0 -0 -0 0 0 0 0 0 -0 0 0 0 0 0 -0 0 0 0 -0 -0
0 0 0 0 0 0 0 0 0 0 0 0 0 0 0 0 0 -0 -0 -0 -0 -0 -0 0 0 0 -0 0 0 0 0 0 0 -0 0 -0 0 0 -0 0 -0 -0 -0 -0 -0
0 0 0 0 0 0 0 0 0 0 0 0 0 0 0 0 0 0 -0 -0 0 0 0 0 0 0 -0 0 0 0 0 0 0 0 0 0 0 0 -0 -0 -0 0 0 -0 -0
0 0 0 0 0 0 0 0 0 0 0 0 0 0 0 0 0 0 0 0 0 0 0 -0 0 0 -0 0 0 0 0 0 -0 -0 -0 -0 0 -0 -0 -0 -0 -0 0 0 -0
0 0 0 0 0 0 0 0 0 0 0 0 0 0 0 0 0 0 0 0 0 0 0 0 0 0 -0 -0 -0 -0 -0 0 0 0 -0 -0 -0 -0 -0 -0 -0 -0 -0 -0 -0
0 0 0 0 0 0 0 0 0 0 0 -0 0 0 0 0 0 0 0 0 0 0 0 0 0 0 0 -0 0 0 -0 0 0 0 -0 -0 -0 0 -0 -0 -0 -0 -0 -0 -0
0 0 0 0 0 0 0 0 0 0 0 -0 0 0 0 0 0 0 0 0 0 -0 0 0 -0 0 0 -0 0 -0 -0 -0 0 0 0 -0 0 -0 0 -0 -0 -0 -0 -0 -0
0 0 0 0 0 0 0 0 0 0 0 0 0 0 0 0 0 0 0 0 0 0 0 -0 0 -0 -0 -0 0 0 0 0 0 0 0 0 0 -0 0 -0 -0 -0 -0 -0 -0
0 0 0 0 0 0 0 0 0 0 0 0 0 0 0 0 0 0 0 0 0 0 0 -0 -0 0 -0 -0 -0 0 0 0 0 0 0 0 0 -0 0 0 -0 -0 -0 -0 0
0 0 0 0 0 0 0 0 0 0 0 0 0 0 0 0 0 0 0 0 0 0 0 0 -0 -0 0 0 0 0 0 0 0 0 0 0 0 -0 0 -0 -0 0 -0 -0 0
0 0 0 0 0 0 0 0 0 0 0 0 0 0 0 0 0 0 0 0 0 0 0 0 -0 0 0 0 0 0 0 0 0 0 0 0 0 0 0 0 -0 0 0 0 -0
0 0 0 0 0 0 0 0 0 0 0 0 0 0 0 0 0 0 0 0 0 0 0 0 0 0 -0 0 0 0 0 0 0 0 0 0 0 0 0 0 0 0 0 0 0
0 0 0 0 0 0 0 0 0 0 0 0 0 0 0 0 0 0 0 0 0 0 0 0 0 0 0 0 0 0 0 0 0 0 0 0 0 0 0 0 0 0 0 0 0
0 0 0 0 0 0 0 0 0 0 0 0 0 0 0 0 0 0 0 0 0 0 0 0 0 0 0 0 0 0 0 0 0 0 0 0 0 0 -0 0 0 -0 0 0 0
0 0 0 0 0 0 0 0 0 0 0 0 0 0 0 0 0 0 0 0 0 0 0 0 0 0 0 0 0 0 0 0 0 0 0 0 0 0 0 0 0 0 -0 -0 -0
0 0 0 0 0 0 0 0 0 0 0 0 0 0 0 0 0 0 0 0 0 0 0 0 0 0 0 0 0 0 0 0 0 0 0 0 0 0 0 0 0 0 0 0 0
0 0 0 0 0 0 0 0 0 0 0 0 0 0 0 0 0 0 0 0 0 0 0 0 0 0 0 0 0 0 0 0 0 0 0 0 0 0 0 0 0 0 0 0 0
0 0 0 0 0 0 0 0 0 0 0 0 0 0 0 0 0 0 0 0 0 0 0 0 0 0 0 0 0 0 0 0 0 0 0 0 0 0 0 0 0 0 0 0 0
0 0 0 0 0 0 0 0 0 0 0 0 0 0 0 0 0 0 0 0 0 0 0 0 0 0 0 0 0 0 0 0 0 0 0 0 0 0 0 0 0 0 0 0 0
0 0 0 0 0 0 0 0 0 0 0 0 0 0 0 0 0 0 0 0 0 0 0 0 0 0 0 0 0 0 0 0 0 0 0 0 0 0 0 0 0 0 0 0 0
Wind_Speed_500mb
33 32 32 31 32 32 33 34 34 36 39 42 43 45 47 47 37 13 7 8 6 14 8 10 9 8 9 11 8 7 2 4 7 5 7 3 3 3 6 7 3 1 9 14 33
38 36 34 34 34 33 33 34 36 38 40 42 43 44 45 44 33 4 3 9 6 10 9 11 16 13 9 10 7 5 5 13 10 8 6 2 5 6 5 7 4 4 5 29 29
42 39 39 37 36 36 35 34 36 38 41 43 44 44 43 41 22 8 3 6 3 7 6 12 17 13 7 7 9 9 9 4 8 18 7 6 6 4 2 7 9 14 28 34 35
43 44 45 41 39 39 38 37 35 38 42 43 44 44 42 32 3 10 7 3 1 7 10 13 14 8 6 6 8 7 11 11 9 6 4 5 7 5 1 7 13 18 31 35 36
47 44 43 44 46 41 41 39 37 38 42 43 43 45 43 22 23 20 11 4 8 9 12 10 7 4 2 5 5 8 7 5 6 7 6 12 11 3 13 16 8 29 34 32 30
48 48 48 44 46 49 43 41 39 40 42 42 43 42 36 14 11 16 13 12 11 10 10 11 3 6 3 6 5 6 2 7 6 5 6 6 1 6 6 7 14 22 28 27 28
43 45 49 46 44 48 44 42 40 42 44 43 43 41 42 41 18 23 22 17 11 6 6 4 4 5 10 4 3 4 3 5 2 4 2 6 2 5 4 9 16 14 25 26 30
43 42 44 45 44 45 45 44 41 44 45 44 41 35 26 29 23 31 28 23 15 12 12 11 12 10 5 1 6 4 6 5 1 7 2 7 6 5 15 13 20 17 23 23 24
44 43 43 43 41 43 45 42 37 46 47 41 30 19 24 14 14 27 30 25 11 9 15 15 8 5 4 6 2 8 2 2 6 9 5 10 4 14 24 17 16 24 24 18 27
43 43 42 42 40 41 41 38 34 38 39 24 25 12 24 7 9 18 23 24 19 8 7 10 6 2 4 4 10 8 4 3 6 3 6 9 8 16 32 26 20 19 23 25 33
44 43 42 39 37 36 36 27 18 12 11 22 6 13 9 7 11 17 20 27 20 11 6 2 4 10 12 13 8 10 8 7 7 5 6 8 8 26 35 29 28 29 26 29 44
36 39 38 35 33 29 25 16 15 14 24 36 48 60 60 51 15 17 22 23 16 11 7 2 10 8 9 8 11 7 8 10 10 3 10 4 11 14 30 40 46 44 39 39 38
37 33 31 28 32 28 25 17 16 22 13 24 40 39 56 48 28 29 31 23 10 11 12 10 4 10 7 6 10 9 9 8 12 4 1 1 5 8 14 29 29 39 44 43 51
37 33 27 21 22 26 24 7 10 15 6 12 12 13 31 26 15 49 37 26 5 19 16 9 4 10 8 9 9 6 12 6 5 3 2 4 5 6 13 27 26 44 47 56 55
43 36 26 26 12 13 7 13 2 2 9 4 7 11 19 29 23 38 40 18 17 13 11 9 12 9 10 10 12 10 8 5 3 4 2 2 4 6 5 21 35 51 56 60 66
46 40 28 35 44 25 27 3 11 2 17 7 13 13 12 14 5 19 23 13 13 10 2 7 2 8 10 8 9 10 7 8 6 4 2 1 6 7 8 10 9 40 51 62 70
51 46 42 39 40 38 25 8 6 14 8 6 8 11 9 13 7 8 19 16 13 12 9 1 6 4 7 6 2 4 6 0 2 3 5 8 5 15 11 16 20 23 41 67 75
47 44 52 52 32 32 25 6 20 12 17 9 3 5 11 11 9 7 19 23 6 10 8 12 8 13 9 10 11 6 8 7 6 6 3 3 10 8 8 18 29 30 26 36 58
47 52 60 60 54 39 25 20 17 13 8 7 2 6 9 8 8 7 14 26 27 15 14 11 10 3 5 6 5 6 7 2 12 4 1 4 8 18 7 13 21 22 20 18 37
53 55 69 61 57 45 16 43 16 12 5 2 11 9 18 13 11 16 15 11 17 18 11 13 5 3 4 6 9 5 15 5 3 7 6 4 6 8 9 9 11 15 22 17 19
57 32 27 64 55 39 29 32 29 26 2 1 3 4 8 11 15 11 19 3 24 17 9 9 6 3 5 9 17 7 5 5 7 5 5 4 7 12 12 6 8 13 19 18 14
56 18 37 80 39 35 40 43 43 49 18 7 3 6 6 10 11 12 21 12 33 33 20 12 8 9 13 3 3 4 11 11 7 8 2 3 12 8 16 13 15 21 18 14 11
30 33 40 97 28 32 29 41 36 25 25 13 9 10 0 3 6 11 12 10 36 17 22 16 3 6 4 1 3 6 9 7 9 6 15 10 9 3 12 12 19 22 19 17 16
33 13 24 74 76 42 40 42 47 57 16 24 7 6 2 5 6 5 10 6 30 15 25 28 8 12 17 16 9 9 12 15 12 7 9 14 20 16 17 10 23 20 17 20 22
42 14 29 27 44 45 41 30 52 33 37 27 11 12 9 8 4 6 3 4 5 12 9 10 13 11 9 8 10 11 9 22 20 15 15 23 21 22 19 11 13 13 17 25 24
33 17 44 15 68 45 39 45 56 55 27 29 14 26 25 7 11 6 10 6 2 0 9 6 9 12 9 6 12 8 11 15 14 8 18 17 19 22 16 13 18 18 17 21 25
71 71 39 45 36 37 52 47 36 41 40 34 32 12 20 36 28 21 18 15 7 2 6 7 13 9 10 1 7 8 15 20 10 11 14 21 22 3 9 10 7 11 9 9 7
Wind_Direction_500mb
301 306 311 314 318 322 326 327 325 323 322 324 327 330 332 330 331 332 17 27 80 164 163 179 164 141 128 141 154 167 171 246 258 227 279 294 108 78 127 137 171 259 174 186 169
293 296 302 306 311 316 320 323 325 322 321 322 325 329 332 331 329 269 45 41 102 158 171 185 170 158 142 162 179 167 212 220 210 207 247 236 179 177 168 167 127 100 171 161 177
279 286 290 299 304 310 314 318 322 322 319 320 324 327 332 332 327 190 178 30 60 212 198 191 183 184 146 164 193 188 233 242 251 246 227 153 210 165 164 228 204 195 163 170 177
277 284 283 287 296 303 307 312 317 320 317 318 323 325 330 332 319 199 214 301 173 182 192 196 189 161 122 208 199 246 273 265 286 239 142 157 111 53 349 288 266 187 174 171 169
271 275 279 286 287 292 300 305 310 315 315 316 319 323 331 318 277 237 233 201 154 156 186 198 221 149 175 211 198 220 290 312 286 117 103 99 52 100 334 336 177 163 174 175 175
267 271 273 276 286 289 289 298 303 309 310 313 313 318 319 301 253 220 202 182 144 149 199 211 323 318 279 246 221 180 240 92 116 108 95 68 91 3 323 84 129 167 170 175 170
269 265 270 274 278 284 285 291 299 303 304 308 306 308 300 282 250 218 200 196 189 181 215 202 284 354 325 306 157 196 158 106 117 169 41 120 328 21 159 169 138 173 145 156 170
269 272 268 270 276 283 284 287 295 297 299 300 297 296 272 282 247 218 211 211 227 238 244 242 255 297 222 245 10 33 62 39 326 164 290 182 284 165 183 166 155 147 144 153 151
263 268 274 272 276 282 284 290 296 294 295 294 287 275 264 260 246 215 219 224 221 243 257 217 211 219 174 120 46 29 138 91 334 240 143 214 244 180 196 183 161 165 182 171 161
263 264 268 276 277 282 287 299 303 292 283 280 256 275 251 226 192 196 212 215 209 206 130 175 153 157 76 140 199 188 181 199 262 175 224 237 208 179 191 205 194 195 188 182 184
268 262 262 269 275 282 292 320 314 274 266 231 237 244 262 236 265 224 207 199 188 193 186 116 174 215 212 203 182 177 180 235 238 241 247 233 211 203 192 198 204 210 201 199 199
268 266 265 260 266 273 285 297 311 305 300 267 258 256 254 261 292 216 187 168 163 195 145 82 232 212 183 163 151 186 229 263 306 304 208 193 240 214 202 212 204 201 211 213 206
265 270 267 258 257 263 273 278 284 304 273 283 246 244 242 235 226 237 189 182 148 152 185 186 225 156 156 168 180 207 206 221 267 330 16 252 242 194 222 235 225 223 218 218 217
257 265 259 250 257 268 267 246 272 279 286 264 225 240 194 189 224 221 198 173 130 192 158 228 226 186 179 211 182 254 220 204 221 205 269 303 281 238 207 223 235 231 220 221 222
254 249 242 214 196 201 189 144 145 87 299 221 169 162 183 184 154 196 197 186 159 162 150 228 172 180 202 214 181 229 157 176 151 123 189 221 265 276 165 224 228 227 224 225 225
243 232 227 221 212 175 169 88 136 166 245 305 147 169 148 229 186 138 166 161 147 120 63 209 196 171 204 201 195 134 121 57 69 114 233 251 239 276 239 231 251 233 225 225 229
232 226 213 216 227 195 183 303 150 221 320 224 193 162 181 181 186 139 170 164 156 163 176 77 221 220 180 152 152 140 92 211 131 157 202 130 161 252 276 258 252 262 227 231 230
227 224 216 214 194 200 187 185 216 197 233 303 179 108 181 156 223 133 144 182 216 123 141 180 251 182 183 199 193 172 172 166 190 191 189 207 219 238 226 294 289 279 276 250 237
227 225 223 214 193 176 194 207 218 190 208 225 127 145 217 214 179 150 174 193 187 168 173 154 237 188 217 140 160 166 195 108 103 24 187 249 285 277 252 290 302 300 304 262 234
224 227 229 212 197 203 215 216 214 205 193 204 207 188 184 185 171 179 177 189 191 189 166 194 143 171 154 127 48 181 143 136 67 175 240 235 265 246 305 325 326 310 308 316 250
214 224 230 204 194 211 216 209 201 241 258 194 258 263 216 177 182 187 188 228 186 179 130 136 129 194 122 221 179 147 181 75 120 161 215 267 246 217 244 279 297 280 286 287 273
203 214 197 183 189 211 219 202 227 225 237 253 240 243 242 188 173 191 192 220 183 146 171 192 144 184 192 220 230 202 184 158 153 192 196 251 254 236 251 262 274 276 276 271 256
200 199 198 182 194 206 210 214 221 223 219 187 221 219 263 267 193 200 197 228 165 150 164 176 187 189 258 16 3 212 190 144 105 97 194 212 255 216 274 296 290 274 280 276 265
189 173 189 196 211 214 191 201 212 206 241 209 199 191 205 280 212 201 206 212 189 194 193 147 142 167 219 224 161 191 196 182 158 154 186 220 251 263 273 268 288 279 277 290 268
194 205 196 196 207 217 205 196 195 197 210 179 203 208 170 230 312 211 152 119 144 181 146 144 186 180 232 236 190 209 182 176 197 212 199 243 218 247 251 231 265 292 288 289 282
175 184 204 215 212 211 209 208 197 197 187 206 205 197 216 217 197 137 46 80 298 264 165 180 201 161 205 124 204 223 223 188 216 218 244 254 249 232 241 249 257 274 295 293 293
200 198 199 205 192 199 212 203 199 185 212 216 210 204 200 227 257 307 303 257 243 113 202 184 139 133 221 191 143 304 211 197 195 206 205 229 247 208 239 224 245 283 298 292 291
Wind_Speed_850mb
33 32 32 31 32 32 33 34 34 36 39 42 43 45 47 47 37 13 7 8 6 14 8 10 9 8 9 11 8 7 2 4 7 5 7 3 3 3 6 7 3 1 9 14 33
38 36 34 34 34 33 33 34 36 38 40 42 43 44 45 44 33 4 3 9 6 10 9 11 16 13 9 10 7 5 5 13 10 8 6 2 5 6 5 7 4 4 5 29 29
42 39 39 37 36 36 35 34 36 38 41 43 44 44 43 41 22 8 3 6 3 7 6 12 17 13 7 7 9 9 9 4 8 18 7 6 6 4 2 7 9 14 28 34 35
43 44 45 41 39 39 38 37 35 38 42 43 44 44 42 32 3 10 7 3 1 7 10 13 14 8 6 6 8 7 11 11 9 6 4 5 7 5 1 7 13 18 31 35 36
47 44 43 44 46 41 41 39 37 38 42 43 43 45 43 22 23 20 11 4 8 9 12 10 7 4 2 5 5 8 7 5 6 7 6 12 11 3 13 16 8 29 34 32 30
48 48 48 44 46 49 43 41 39 40 42 42 43 42 36 14 11 16 13 12 11 10 10 11 3 6 3 6 5 6 2 7 6 5 6 6 1 6 6 7 14 22 28 27 28
43 45 49 46 44 48 44 42 40 42 44 43 43 41 42 41 18 23 22 17 11 6 6 4 4 5 10 4 3 4 3 5 2 4 2 6 2 5 4 9 16 14 25 26 30
43 42 44 45 44 45 45 44 41 44 45 44 41 35 26 29 23 31 28 23 15 12 12 11 12 10 5 1 6 4 6 5 1 7 2 7 6 5 15 13 20 17 23 23 24
44 43 43 43 41 43 45 42 37 46 47 41 30 19 24 14 14 27 30 25 11 9 15 15 8 5 4 6 2 8 2 2 6 9 5 10 4 14 24 17 16 24 24 18 27
43 43 42 42 40 41 41 38 34 38 39 24 25 12 24 7 9 18 23 24 19 8 7 10 6 2 4 4 10 8 4 3 6 3 6 9 8 16 32 26 20 19 23 25 33
44 43 42 39 37 36 36 27 18 12 11 22 6 13 9 7 11 17 20 27 20 11 6 2 4 10 12 13 8 10 8 7 7 5 6 8 8 26 35 29 28 29 26 29 44
36 39 38 35 33 29 25 16 15 14 24 36 48 60 60 51 15 17 22 23 16 11 7 2 10 8 9 8 11 7 8 10 10 3 10 4 11 14 30 40 46 44 39 39 38
37 33 31 28 32 28 25 17 16 22 13 24 40 39 56 48 28 29 31 23 10 11 12 10 4 10 7 6 10 9 9 8 12 4 1 1 5 8 14 29 29 39 44 43 51
37 33 27 21 22 26 24 7 10 15 6 12 12 13 31 26 15 49 37 26 5 19 16 9 4 10 8 9 9 6 12 6 5 3 2 4 5 6 13 27 26 44 47 56 55
43 36 26 26 12 13 7 13 2 2 9 4 7 11 19 29 23 38 40 18 17 13 11 9 12 9 10 10 12 10 8 5 3 4 2 2 4 6 5 21 35 51 56 60 66
46 40 28 35 44 25 27 3 11 2 17 7 13 13 12 14 5 19 23 13 13 10 2 7 2 8 10 8 9 10 7 8 6 4 2 1 6 7 8 10 9 40 51 62 70
51 46 42 39 40 38 25 8 6 14 8 6 8 11 9 13 7 8 19 16 13 12 9 1 6 4 7 6 2 4 6 0 2 3 5 8 5 15 11 16 20 23 41 67 75
47 44 52 52 32 32 25 6 20 12 17 9 3 5 11 11 9 7 19 23 6 10 8 12 8 13 9 10 11 6 8 7 6 6 3 3 10 8 8 18 29 30 26 36 58
47 52 60 60 54 39 25 20 17 13 8 7 2 6 9 8 8 7 14 26 27 15 14 11 10 3 5 6 5 6 7 2 12 4 1 4 8 18 7 13 21 22 20 18 37
53 55 69 61 57 45 16 43 16 12 5 2 11 9 18 13 11 16 15 11 17 18 11 13 5 3 4 6 9 5 15 5 3 7 6 4 6 8 9 9 11 15 22 17 19
57 32 27 64 55 39 29 32 29 26 2 1 3 4 8 11 15 11 19 3 24 17 9 9 6 3 5 9 17 7 5 5 7 5 5 4 7 12 12 6 8 13 19 18 14
56 18 37 80 39 35 40 43 43 49 18 7 3 6 6 10 11 12 21 12 33 33 20 12 8 9 13 3 3 4 11 11 7 8 2 3 12 8 16 13 15 21 18 14 11
30 33 40 97 28 32 29 41 36 25 25 13 9 10 0 3 6 11 12 10 36 17 22 16 3 6 4 1 3 6 9 7 9 6 15 10 9 3 12 12 19 22 19 17 16
33 13 24 74 76 42 40 42 47 57 16 24 7 6 2 5 6 5 10 6 30 15 25 28 8 12 17 16 9 9 12 15 12 7 9 14 20 16 17 10 23 20 17 20 22
42 14 29 27 44 45 41 30 52 33 37 27 11 12 9 8 4 6 3 4 5 12 9 10 13 11 9 8 10 11 9 22 20 15 15 23 21 22 19 11 13 13 17 25 24
33 17 44 15 68 45 39 45 56 55 27 29 14 26 25 7 11 6 10 6 2 0 9 6 9 12 9 6 12 8 11 15 14 8 18 17 19 22 16 13 18 18 17 21 25
71 71 39 45 36 37 52 47 36 41 40 34 32 12 20 36 28 21 18 15 7 2 6 7 13 9 10 1 7 8 15 20 10 11 14 21 22 3 9 10 7 11 9 9 7
Wind_Direction_850mb
301 306 311 314 318 322 326 327 325 323 322 324 327 330 332 330 331 332 17 27 80 164 163 179 164 141 128 141 154 167 171 246 258 227 279 294 108 78 127 137 171 259 174 186 169
293 296 302 306 311 316 320 323 325 322 321 322 325 329 332 331 329 269 45 41 102 158 171 185 170 158 142 162 179 167 212 220 210 207 247 236 179 177 168 167 127 100 171 161 177
279 286 290 299 304 310 314 318 322 322 319 320 324 327 332 332 327 190 178 30 60 212 198 191 183 184 146 164 193 188 233 242 251 246 227 153 210 165 164 228 204 195 163 170 177
277 284 283 287 296 303 307 312 317 320 317 318 323 325 330 332 319 199 214 301 173 182 192 196 189 161 122 208 199 246 273 265 286 239 142 157 111 53 349 288 266 187 174 171 169
271 275 279 286 287 292 300 305 310 315 315 316 319 323 331 318 277 237 233 201 154 156 186 198 221 149 175 211 198 220 290 312 286 117 103 99 52 100 334 336 177 163 174 175 175
267 271 273 276 286 289 289 298 303 309 310 313 313 318 319 301 253 220 202 182 144 149 199 211 323 318 279 246 221 180 240 92 116 108 95 68 91 3 323 84 129 167 170 175 170
269 265 270 274 278 284 285 291 299 303 304 308 306 308 300 282 250 218 200 196 189 181 215 202 284 354 325 306 157 196 158 106 117 169 41 120 328 21 159 169 138 173 145 156 170
269 272 268 270 276 283 284 287 295 297 299 300 297 296 272 282 247 218 211 211 227 238 244 242 255 297 222 245 10 33 62 39 326 164 290 182 284 165 183 166 155 147 144 153 151
263 268 274 272 276 282 284 290 296 294 295 294 287 275 264 260 246 215 219 224 221 243 257 217 211 219 174 120 46 29 138 91 334 240 143 214 244 180 196 183 161 165 182 171 161
263 264 268 276 277 282 287 299 303 292 283 280 256 275 251 226 192 196 212 215 209 206 130 175 153 157 76 140 199 188 181 199 262 175 224 237 208 179 191 205 194 195 188 182 184
268 262 262 269 275 282 292 320 314 274 266 231 237 244 262 236 265 224 207 199 188 193 186 116 174 215 212 203 182 177 180 235 238 241 247 233 211 203 192 198 204 210 201 199 199
268 266 265 260 266 273 285 297 311 305 300 267 258 256 254 261 292 216 187 168 163 195 145 82 232 212 183 163 151 186 229 263 306 304 208 193 240 214 202 212 204 201 211 213 206
265 270 267 258 257 263 273 278 284 304 273 283 246 244 242 235 226 237 189 182 148 152 185 186 225 156 156 168 180 207 206 221 267 330 16 252 242 194 222 235 225 223 218 218 217
257 265 259 250 257 268 267 246 272 279 286 264 225 240 194 189 224 221 198 173 130 192 158 228 226 186 179 211 182 254 220 204 221 205 269 303 281 238 207 223 235 231 220 221 222
254 249 242 214 196 201 189 144 145 87 299 221 169 162 183 184 154 196 197 186 159 162 150 228 172 180 202 214 181 229 157 176 151 123 189 221 265 276 165 224 228 227 224 225 225
243 232 227 221 212 175 169 88 136 166 245 305 147 169 148 229 186 138 166 161 147 120 63 209 196 171 204 201 195 134 121 57 69 114 233 251 239 276 239 231 251 233 225 225 229
232 226 213 216 227 195 183 303 150 221 320 224 193 162 181 181 186 139 170 164 156 163 176 77 221 220 180 152 152 140 92 211 131 157 202 130 161 252 276 258 252 262 227 231 230
227 224 216 214 194 200 187 185 216 197 233 303 179 108 181 156 223 133 144 182 216 123 141 180 251 182 183 199 193 172 172 166 190 191 189 207 219 238 226 294 289 279 276 250 237
227 225 223 214 193 176 194 207 218 190 208 225 127 145 217 214 179 150 174 193 187 168 173 154 237 188 217 140 160 166 195 108 103 24 187 249 285 277 252 290 302 300 304 262 234
224 227 229 212 197 203 215 216 214 205 193 204 207 188 184 185 171 179 177 189 191 189 166 194 143 171 154 127 48 181 143 136 67 175 240 235 265 246 305 325 326 310 308 316 250
214 224 230 204 194 211 216 209 201 241 258 194 258 263 216 177 182 187 188 228 186 179 130 136 129 194 122 221 179 147 181 75 120 161 215 267 246 217 244 279 297 280 286 287 273
203 214 197 183 189 211 219 202 227 225 237 253 240 243 242 188 173 191 192 220 183 146 171 192 144 184 192 220 230 202 184 158 153 192 196 251 254 236 251 262 274 276 276 271 256
200 199 198 182 194 206 210 214 221 223 219 187 221 219 263 267 193 200 197 228 165 150 164 176 187 189 258 16 3 212 190 144 105 97 194 212 255 216 274 296 290 274 280 276 265
189 173 189 196 211 214 191 201 212 206 241 209 199 191 205 280 212 201 206 212 189 194 193 147 142 167 219 224 161 191 196 182 158 154 186 220 251 263 273 268 288 279 277 290 268
194 205 196 196 207 217 205 196 195 197 210 179 203 208 170 230 312 211 152 119 144 181 146 144 186 180 232 236 190 209 182 176 197 212 199 243 218 247 251 231 265 292 288 289 282
175 184 204 215 212 211 209 208 197 197 187 206 205 197 216 217 197 137 46 80 298 264 165 180 201 161 205 124 204 223 223 188 216 218 244 254 249 232 241 249 257 274 295 293 293
200 198 199 205 192 199 212 203 199 185 212 216 210 204 200 227 257 307 303 257 243 113 202 184 139 133 221 191 143 304 211 197 195 206 205 229 247 208 239 224 245 283 298 292 291